TimePST,TemperatureF,Dew PointF,Humidity,Sea Level PressureIn,VisibilityMPH,Wind Direction,Wind SpeedMPH,Gust SpeedMPH,PrecipitationIn,Events,Conditions,WindDirDegrees,DateUTC
12:51 AM,46.9,45.0,93,30.14,10.0,Calm,Calm,-,N/A,,Clear,0,2012-11-23 08:51:00
1:51 AM,46.9,44.1,90,30.14,10.0,Calm,Calm,-,N/A,,Clear,0,2012-11-23 09:51:00
2:51 AM,46.9,44.1,90,30.15,10.0,SSE,4.6,-,N/A,,Clear,160,2012-11-23 10:51:00
3:51 AM,46.0,44.1,93,30.14,10.0,Calm,Calm,-,N/A,,Clear,0,2012-11-23 11:51:00
4:51 AM,46.9,44.1,90,30.14,10.0,SSE,3.5,-,N/A,,Clear,160,2012-11-23 12:51:00
5:51 AM,46.0,43.0,89,30.15,10.0,Calm,Calm,-,N/A,,Clear,0,2012-11-23 13:51:00
6:51 AM,46.0,42.1,86,30.17,10.0,Calm,Calm,-,N/A,,Clear,0,2012-11-23 14:51:00
7:51 AM,50.0,46.0,86,30.18,10.0,Calm,Calm,-,N/A,,Clear,0,2012-11-23 15:51:00
8:51 AM,59.0,46.0,62,30.19,10.0,Calm,Calm,-,N/A,,Clear,0,2012-11-23 16:51:00
9:51 AM,68.0,43.0,40,30.18,10.0,Calm,Calm,-,N/A,,Clear,0,2012-11-23 17:51:00
10:51 AM,73.0,42.1,33,30.17,10.0,Calm,Calm,-,N/A,,Clear,0,2012-11-23 18:51:00
11:51 AM,75.0,39.9,28,30.14,10.0,West,4.6,-,N/A,,Clear,280,2012-11-23 19:51:00
12:51 PM,78.1,37.9,24,30.11,10.0,West,5.8,-,N/A,,Clear,280,2012-11-23 20:51:00
1:51 PM,79.0,43.0,28,30.10,10.0,Variable,5.8,-,N/A,,Clear,0,2012-11-23 21:51:00
2:31 PM,73.4,50.0,44,30.09,10.0,NW,8.1,-,N/A,,Clear,310,2012-11-23 22:31:00
2:51 PM,73.0,50.0,44,30.10,10.0,NW,8.1,-,N/A,,Clear,310,2012-11-23 22:51:00
3:51 PM,70.0,46.9,44,30.11,10.0,NW,6.9,-,N/A,,Clear,310,2012-11-23 23:51:00
4:51 PM,60.1,51.1,72,30.12,10.0,NW,4.6,-,N/A,,Clear,310,2012-11-24 00:51:00
5:51 PM,57.9,52.0,81,30.12,10.0,SSE,3.5,-,N/A,,Clear,160,2012-11-24 01:51:00
6:51 PM,55.9,48.0,75,30.12,10.0,SSE,4.6,-,N/A,,Clear,150,2012-11-24 02:51:00
7:51 PM,54.0,46.9,77,30.13,10.0,SE,3.5,-,N/A,,Clear,140,2012-11-24 03:51:00
8:51 PM,54.0,46.9,77,30.14,10.0,ESE,3.5,-,N/A,,Clear,110,2012-11-24 04:51:00
9:51 PM,52.0,46.0,80,30.14,10.0,SE,4.6,-,N/A,,Clear,130,2012-11-24 05:51:00
10:51 PM,51.1,45.0,80,30.13,10.0,SE,3.5,-,N/A,,Clear,140,2012-11-24 06:51:00
11:51 PM,48.9,44.1,83,30.13,10.0,ESE,3.5,-,N/A,,Clear,110,2012-11-24 07:51:00